CCA1692 ZYTL-ZBAA

Flight info

Callsign CCA1692
Flight time 1h 5m
Altitude 38100
Route ORA09D ORAVA W201 UKDUM W49 OSUBA OSUBA6J
Aircraft A20N/M-SDE2E3FGHIRWXY/LB1

Departure

Time 2026-04-19 02:08
Airport Dalian Zhoushuizi International Airport (ZYTL)

Arrival

Time 2026-04-19 03:14
Airport Beijing Capital International Airport (ZBAA)
Time Latitude Longitude Altitude Speed Heading
2026-04-19 01:44 38.96235 121.53852 113 ft 0 kts 184°
2026-04-19 01:56 38.96237 121.53853 113 ft 1 kts 184°
2026-04-19 01:56 38.96252 121.53854 113 ft 2 kts 184°
2026-04-19 01:56 38.96267 121.53855 113 ft 2 kts 184°
2026-04-19 01:56 38.96282 121.53856 113 ft 2 kts 184°
2026-04-19 01:57 38.96298 121.53857 113 ft 2 kts 184°
2026-04-19 01:57 38.96313 121.53859 113 ft 2 kts 184°
2026-04-19 01:57 38.96327 121.53860 113 ft 2 kts 184°
2026-04-19 01:57 38.96342 121.53861 113 ft 2 kts 184°
2026-04-19 01:58 38.96357 121.53862 113 ft 2 kts 184°
2026-04-19 01:58 38.96372 121.53866 113 ft 2 kts 212°
2026-04-19 01:58 38.96383 121.53879 113 ft 2 kts 237°
2026-04-19 01:58 38.96389 121.53897 113 ft 2 kts 264°
2026-04-19 01:59 38.96389 121.53909 113 ft 1 kts 281°
2026-04-19 01:59 38.96388 121.53913 113 ft 0 kts 276°
2026-04-19 02:01 38.96389 121.53907 113 ft 1 kts 276°
2026-04-19 02:02 38.96390 121.53885 113 ft 3 kts 276°
2026-04-19 02:02 38.96394 121.53844 112 ft 6 kts 276°
2026-04-19 02:02 38.96399 121.53768 113 ft 10 kts 275°
2026-04-19 02:02 38.96407 121.53657 112 ft 13 kts 276°
2026-04-19 02:03 38.96417 121.53528 113 ft 14 kts 276°
2026-04-19 02:03 38.96428 121.53394 113 ft 15 kts 276°
2026-04-19 02:03 38.96426 121.53255 113 ft 15 kts 258°
2026-04-19 02:03 38.96426 121.53115 113 ft 16 kts 276°
2026-04-19 02:04 38.96437 121.52970 113 ft 16 kts 278°
2026-04-19 02:04 38.96449 121.52823 113 ft 16 kts 276°
2026-04-19 02:04 38.96461 121.52670 113 ft 17 kts 276°
2026-04-19 02:04 38.96473 121.52516 113 ft 17 kts 275°
2026-04-19 02:05 38.96486 121.52357 112 ft 17 kts 276°
2026-04-19 02:05 38.96498 121.52197 112 ft 18 kts 276°
2026-04-19 02:05 38.96510 121.52033 113 ft 18 kts 276°
2026-04-19 02:05 38.96558 121.51952 113 ft 13 kts
2026-04-19 02:06 38.96619 121.51962 112 ft 0 kts
2026-04-19 02:06 38.96620 121.51962 112 ft 0 kts
2026-04-19 02:06 38.96629 121.51963 113 ft 2 kts
2026-04-19 02:07 38.96662 121.51968 113 ft 6 kts
2026-04-19 02:07 38.96704 121.52003 113 ft 8 kts 65°
2026-04-19 02:07 38.96701 121.52113 113 ft 31 kts 93°
2026-04-19 02:07 38.96652 121.52761 113 ft 110 kts 94°
2026-04-19 02:08 38.96560 121.54028 150 ft 169 kts 96°
2026-04-19 02:08 38.96450 121.55535 833 ft 173 kts 98°
2026-04-19 02:08 38.96324 121.57041 1663 ft 172 kts 99°
2026-04-19 02:08 38.96188 121.58584 2287 ft 182 kts 100°
2026-04-19 02:09 38.96037 121.60262 2825 ft 199 kts 100°
2026-04-19 02:09 38.95876 121.62099 3370 ft 216 kts 99°
2026-04-19 02:09 38.95706 121.64101 3834 ft 239 kts 100°
2026-04-19 02:09 38.95523 121.66296 4474 ft 256 kts 99°
2026-04-19 02:10 38.95338 121.68563 5428 ft 259 kts 100°
2026-04-19 02:10 38.95231 121.70830 6368 ft 264 kts 88°
2026-04-19 02:10 38.95907 121.73033 7271 ft 275 kts 51°
2026-04-19 02:10 38.97451 121.74448 8173 ft 278 kts 18°
2026-04-19 02:11 38.99324 121.74824 9059 ft 278 kts
2026-04-19 02:11 39.01249 121.74792 9879 ft 281 kts 345°
2026-04-19 02:11 39.02994 121.73734 10644 ft 277 kts 315°
2026-04-19 02:11 39.04139 121.71786 11326 ft 277 kts 289°
2026-04-19 02:12 39.04515 121.69337 11786 ft 289 kts 271°
2026-04-19 02:12 39.04652 121.66676 12226 ft 307 kts 272°
2026-04-19 02:12 39.04824 121.63884 12603 ft 325 kts 273°
2026-04-19 02:12 39.05034 121.60909 12954 ft 343 kts 273°
2026-04-19 02:13 39.04974 121.57811 13254 ft 357 kts 259°
2026-04-19 02:13 39.04556 121.54637 13736 ft 369 kts 265°
2026-04-19 02:13 39.04952 121.51356 14372 ft 379 kts 290°
2026-04-19 02:13 39.06426 121.48534 15110 ft 387 kts 314°
2026-04-19 02:14 39.08457 121.46287 15837 ft 390 kts 317°
2026-04-19 02:14 39.10453 121.43900 16483 ft 393 kts 312°
2026-04-19 02:14 39.12313 121.41334 17124 ft 396 kts 309°
2026-04-19 02:14 39.14088 121.38599 17744 ft 399 kts 307°
2026-04-19 02:15 39.15799 121.35774 18363 ft 401 kts 305°
2026-04-19 02:15 39.17456 121.32918 18954 ft 404 kts 304°
2026-04-19 02:15 39.19118 121.29971 19653 ft 406 kts 303°
2026-04-19 02:15 39.20764 121.27013 20233 ft 409 kts 303°
2026-04-19 02:16 39.22415 121.24015 20821 ft 411 kts 304°
2026-04-19 02:16 39.24050 121.21024 21331 ft 414 kts 304°
2026-04-19 02:16 39.25709 121.17980 21925 ft 415 kts 304°
2026-04-19 02:16 39.27383 121.14902 22376 ft 418 kts 304°
2026-04-19 02:17 39.29037 121.11858 22539 ft 419 kts 304°
2026-04-19 02:17 39.30704 121.08785 22540 ft 418 kts 304°
2026-04-19 02:17 39.32391 121.05665 22547 ft 433 kts 304°
2026-04-19 02:17 39.34139 121.02438 22546 ft 447 kts 304°
2026-04-19 02:18 39.35936 120.99112 22539 ft 457 kts 304°
2026-04-19 02:18 39.37752 120.95750 22546 ft 459 kts 304°
2026-04-19 02:18 39.39588 120.92346 22539 ft 459 kts 303°
2026-04-19 02:18 39.41394 120.88985 22521 ft 460 kts 304°
2026-04-19 02:19 39.43230 120.85564 22528 ft 460 kts 304°
2026-04-19 02:19 39.45053 120.82169 22538 ft 462 kts 304°
2026-04-19 02:19 39.46883 120.78762 22545 ft 460 kts 304°
2026-04-19 02:20 39.50512 120.71984 22525 ft 459 kts 304°
2026-04-19 02:20 39.52309 120.68619 22534 ft 460 kts 303°
2026-04-19 02:20 39.54143 120.65189 22527 ft 460 kts 303°
2026-04-19 02:20 39.55952 120.61799 22518 ft 460 kts 303°
2026-04-19 02:21 39.57764 120.58396 22515 ft 460 kts 303°
2026-04-19 02:21 39.59568 120.55008 22505 ft 460 kts 303°
2026-04-19 02:21 39.61388 120.51583 22517 ft 459 kts 303°
2026-04-19 02:21 39.63205 120.48161 22522 ft 459 kts 303°
2026-04-19 02:22 39.64992 120.44801 22515 ft 460 kts 303°
2026-04-19 02:22 39.66819 120.41350 22504 ft 460 kts 303°
2026-04-19 02:22 39.68610 120.37961 22503 ft 459 kts 303°
2026-04-19 02:22 39.70427 120.34525 22501 ft 460 kts 303°
2026-04-19 02:23 39.72225 120.31125 22513 ft 461 kts 302°
2026-04-19 02:23 39.74041 120.27687 22495 ft 461 kts 303°
2026-04-19 02:23 39.75861 120.24237 22503 ft 461 kts 302°
2026-04-19 02:23 39.77674 120.20799 22493 ft 461 kts 302°
2026-04-19 02:24 39.79475 120.17374 22494 ft 460 kts 302°
2026-04-19 02:24 39.81266 120.13967 22493 ft 461 kts 302°
2026-04-19 02:24 39.83085 120.10498 22486 ft 462 kts 302°
2026-04-19 02:24 39.84876 120.07080 22490 ft 461 kts 302°
2026-04-19 02:25 39.86670 120.03662 22479 ft 460 kts 302°
2026-04-19 02:25 39.88472 120.00225 22484 ft 461 kts 302°
2026-04-19 02:25 39.90282 119.96748 22478 ft 461 kts 302°
2026-04-19 02:25 39.92086 119.93296 22481 ft 461 kts 302°
2026-04-19 02:26 39.93877 119.89864 22464 ft 461 kts 302°
2026-04-19 02:26 39.95674 119.86414 22460 ft 461 kts 301°
2026-04-19 02:26 39.97467 119.82961 22478 ft 462 kts 301°
2026-04-19 02:26 39.99184 119.79421 22450 ft 460 kts 298°
2026-04-19 02:27 40.00757 119.75800 22473 ft 459 kts 296°
2026-04-19 02:27 40.02234 119.72177 22437 ft 460 kts 299°
2026-04-19 02:27 40.04345 119.69014 22444 ft 467 kts 319°
2026-04-19 02:27 40.07068 119.66640 22436 ft 471 kts 326°
2026-04-19 02:28 40.09886 119.64478 22465 ft 471 kts 327°
2026-04-19 02:28 40.12708 119.62319 22446 ft 470 kts 326°
2026-04-19 02:28 40.15521 119.60103 22447 ft 470 kts 325°
2026-04-19 02:28 40.18274 119.57876 22469 ft 470 kts 325°
2026-04-19 02:29 40.21063 119.55576 22472 ft 469 kts 324°
2026-04-19 02:29 40.23817 119.53281 22456 ft 470 kts 324°
2026-04-19 02:29 40.26555 119.50985 22466 ft 469 kts 324°
2026-04-19 02:29 40.29280 119.48685 22466 ft 469 kts 323°
2026-04-19 02:30 40.32016 119.46372 22478 ft 469 kts 324°
2026-04-19 02:30 40.34758 119.44045 22469 ft 468 kts 324°
2026-04-19 02:30 40.37492 119.41727 22468 ft 468 kts 323°
2026-04-19 02:30 40.40196 119.39428 22475 ft 468 kts 324°
2026-04-19 02:31 40.42930 119.37096 22468 ft 468 kts 324°
2026-04-19 02:31 40.45655 119.34778 22477 ft 467 kts 323°
2026-04-19 02:31 40.48388 119.32449 22469 ft 468 kts 323°
2026-04-19 02:31 40.51086 119.30150 22466 ft 468 kts 323°
2026-04-19 02:32 40.53840 119.27795 22461 ft 466 kts 322°
2026-04-19 02:32 40.56519 119.25506 22466 ft 467 kts 322°
2026-04-19 02:32 40.59260 119.23156 22459 ft 466 kts 322°
2026-04-19 02:32 40.61943 119.20862 22458 ft 465 kts 322°
2026-04-19 02:33 40.64655 119.18530 22460 ft 466 kts 323°
2026-04-19 02:33 40.67373 119.16194 22459 ft 466 kts 322°
2026-04-19 02:33 40.70073 119.13872 22467 ft 466 kts 322°
2026-04-19 02:33 40.72790 119.11541 22464 ft 466 kts 322°
2026-04-19 02:34 40.75515 119.09190 22454 ft 467 kts 322°
2026-04-19 02:34 40.78193 119.06883 22460 ft 465 kts 322°
2026-04-19 02:34 40.80911 119.04542 22460 ft 465 kts 322°
2026-04-19 02:34 40.83622 119.02203 22443 ft 464 kts 322°
2026-04-19 02:35 40.86295 118.99889 22447 ft 464 kts 322°
2026-04-19 02:35 40.88985 118.97562 22446 ft 464 kts 321°
2026-04-19 02:35 40.91685 118.95224 22446 ft 464 kts 321°
2026-04-19 02:35 40.94404 118.92866 22446 ft 464 kts 321°
2026-04-19 02:36 40.97061 118.90562 22441 ft 463 kts 322°
2026-04-19 02:36 40.99764 118.88211 22448 ft 463 kts 321°
2026-04-19 02:36 41.02448 118.85877 22438 ft 463 kts 321°
2026-04-19 02:36 41.05127 118.83545 22449 ft 463 kts 321°
2026-04-19 02:37 41.07824 118.81194 22446 ft 464 kts 321°
2026-04-19 02:37 41.10533 118.78830 22447 ft 464 kts 321°
2026-04-19 02:37 41.13209 118.76493 22441 ft 464 kts 321°
2026-04-19 02:37 41.15882 118.74159 22452 ft 464 kts 321°
2026-04-19 02:38 41.18600 118.71780 22447 ft 464 kts 321°
2026-04-19 02:38 41.21263 118.69442 22454 ft 463 kts 321°
2026-04-19 02:38 41.23970 118.67073 22455 ft 463 kts 321°
2026-04-19 02:38 41.26631 118.64737 22456 ft 463 kts 321°
2026-04-19 02:39 41.29335 118.62361 22462 ft 463 kts 321°
2026-04-19 02:39 41.32010 118.60012 22458 ft 463 kts 321°
2026-04-19 02:39 41.34699 118.57644 22467 ft 462 kts 321°
2026-04-19 02:39 41.37364 118.55293 22464 ft 464 kts 321°
2026-04-19 02:40 41.40032 118.52937 22460 ft 464 kts 321°
2026-04-19 02:40 41.42736 118.50551 22466 ft 464 kts 321°
2026-04-19 02:40 41.45398 118.48141 22468 ft 460 kts 317°
2026-04-19 02:40 41.47592 118.45194 22460 ft 448 kts 301°
2026-04-19 02:41 41.49074 118.41573 22471 ft 437 kts 287°
2026-04-19 02:41 41.49755 118.37728 22473 ft 430 kts 273°
2026-04-19 02:41 41.49848 118.33782 22487 ft 428 kts 268°
2026-04-19 02:41 41.49894 118.29777 22480 ft 429 kts 268°
2026-04-19 02:42 41.49943 118.25816 22477 ft 430 kts 268°
2026-04-19 02:42 41.49989 118.21862 22475 ft 429 kts 268°
2026-04-19 02:42 41.50034 118.17883 22479 ft 427 kts 268°
2026-04-19 02:42 41.50075 118.13933 22484 ft 430 kts 268°
2026-04-19 02:43 41.50117 118.09922 22476 ft 430 kts 269°
2026-04-19 02:43 41.50157 118.05943 22472 ft 430 kts 268°
2026-04-19 02:43 41.50196 118.02000 22463 ft 431 kts 268°
2026-04-19 02:43 41.50234 117.97987 22463 ft 430 kts 268°
2026-04-19 02:44 41.50269 117.94009 22476 ft 428 kts 268°
2026-04-19 02:44 41.50302 117.90104 22474 ft 427 kts 268°
2026-04-19 02:44 41.50338 117.86151 22477 ft 427 kts 268°
2026-04-19 02:44 41.50370 117.82207 22484 ft 425 kts 268°
2026-04-19 02:45 41.50396 117.78243 22485 ft 424 kts 268°
2026-04-19 02:45 41.50421 117.74339 22485 ft 425 kts 268°
2026-04-19 02:45 41.50449 117.70432 22473 ft 409 kts 268°
2026-04-19 02:45 41.50479 117.66766 22480 ft 387 kts 268°
2026-04-19 02:46 41.50501 117.63218 22488 ft 383 kts 268°
2026-04-19 02:46 41.50521 117.59699 22481 ft 382 kts 267°
2026-04-19 02:46 41.50538 117.56155 22486 ft 381 kts 268°
2026-04-19 02:46 41.50554 117.52618 22470 ft 381 kts 267°
2026-04-19 02:47 41.50571 117.49120 22220 ft 379 kts 268°
2026-04-19 02:47 41.50588 117.45640 21977 ft 377 kts 267°
2026-04-19 02:47 41.50602 117.42127 21725 ft 376 kts 267°
2026-04-19 02:47 41.50613 117.38675 21477 ft 376 kts 267°
2026-04-19 02:48 41.50627 117.35194 21222 ft 375 kts 266°
2026-04-19 02:48 41.50282 117.31792 20963 ft 369 kts 250°
2026-04-19 02:48 41.49191 117.28760 20724 ft 363 kts 236°
2026-04-19 02:48 41.47495 117.26269 20478 ft 364 kts 221°
2026-04-19 02:49 41.45347 117.24522 20229 ft 369 kts 207°
2026-04-19 02:49 41.42843 117.23570 19988 ft 373 kts 198°
2026-04-19 02:49 41.40323 117.22818 19738 ft 370 kts 197°
2026-04-19 02:49 41.37855 117.22085 19494 ft 367 kts 197°
2026-04-19 02:50 41.35357 117.21352 19251 ft 367 kts 197°
2026-04-19 02:50 41.32856 117.20623 19004 ft 366 kts 197°
2026-04-19 02:50 41.30395 117.19907 18758 ft 363 kts 197°
2026-04-19 02:51 41.25461 117.18484 18270 ft 359 kts 197°
2026-04-19 02:51 41.23047 117.17790 18009 ft 357 kts 196°
2026-04-19 02:51 41.20622 117.17093 17765 ft 355 kts 197°
2026-04-19 02:51 41.18200 117.16400 17519 ft 354 kts 196°
2026-04-19 02:52 41.15786 117.15710 17266 ft 353 kts 196°
2026-04-19 02:52 41.13388 117.15022 17018 ft 353 kts 196°
2026-04-19 02:52 41.11013 117.14344 16774 ft 353 kts 196°
2026-04-19 02:52 41.08609 117.13653 16526 ft 353 kts 196°
2026-04-19 02:53 41.06194 117.12961 16286 ft 352 kts 195°
2026-04-19 02:53 41.03808 117.12280 16033 ft 352 kts 195°
2026-04-19 02:53 41.01438 117.11605 15792 ft 350 kts 195°
2026-04-19 02:53 40.99046 117.10930 15546 ft 349 kts 196°
2026-04-19 02:54 40.96691 117.10257 15292 ft 349 kts 195°
2026-04-19 02:54 40.94324 117.09580 15036 ft 350 kts 195°
2026-04-19 02:54 40.91928 117.08897 14795 ft 351 kts 195°
2026-04-19 02:54 40.89570 117.08230 14560 ft 350 kts 195°
2026-04-19 02:55 40.87206 117.07561 14320 ft 346 kts 195°
2026-04-19 02:55 40.84859 117.06894 14056 ft 345 kts 195°
2026-04-19 02:55 40.82492 117.06222 13761 ft 345 kts 195°
2026-04-19 02:55 40.80142 117.05559 13455 ft 345 kts 195°
2026-04-19 02:56 40.77800 117.04895 13079 ft 344 kts 195°
2026-04-19 02:56 40.75507 117.04161 12656 ft 343 kts 201°
2026-04-19 02:56 40.73351 117.02915 12205 ft 337 kts 211°
2026-04-19 02:56 40.71411 117.01153 12129 ft 338 kts 220°
2026-04-19 02:57 40.69616 116.99143 12079 ft 339 kts 222°
2026-04-19 02:57 40.67852 116.97116 11897 ft 337 kts 221°
2026-04-19 02:57 40.66084 116.95104 11646 ft 338 kts 221°
2026-04-19 02:57 40.64283 116.93070 11395 ft 338 kts 221°
2026-04-19 02:58 40.62502 116.91062 11159 ft 338 kts 221°
2026-04-19 02:58 40.60729 116.89066 10918 ft 334 kts 221°
2026-04-19 02:58 40.58975 116.87090 10669 ft 333 kts 222°
2026-04-19 02:58 40.57246 116.85144 10434 ft 323 kts 222°
2026-04-19 02:59 40.55561 116.83281 10163 ft 313 kts 218°
2026-04-19 02:59 40.53661 116.81946 9894 ft 307 kts 202°
2026-04-19 02:59 40.51587 116.81404 9724 ft 300 kts 187°
2026-04-19 02:59 40.49529 116.81544 9597 ft 290 kts 179°
2026-04-19 03:00 40.47585 116.81834 9460 ft 279 kts 178°
2026-04-19 03:00 40.45660 116.82134 9330 ft 276 kts 178°
2026-04-19 03:00 40.43748 116.82432 9203 ft 276 kts 178°
2026-04-19 03:00 40.41836 116.82730 9074 ft 276 kts 178°
2026-04-19 03:01 40.39931 116.83024 8950 ft 276 kts 178°
2026-04-19 03:01 40.38035 116.83315 8817 ft 275 kts 178°
2026-04-19 03:01 40.36131 116.83603 8693 ft 276 kts 178°
2026-04-19 03:01 40.34223 116.83897 8561 ft 276 kts 178°
2026-04-19 03:02 40.32309 116.84193 8434 ft 277 kts 178°
2026-04-19 03:02 40.30410 116.84486 8314 ft 276 kts 178°
2026-04-19 03:02 40.28495 116.84782 8192 ft 275 kts 178°
2026-04-19 03:02 40.26606 116.85043 8068 ft 274 kts 182°
2026-04-19 03:03 40.24792 116.84577 7922 ft 265 kts 210°
2026-04-19 03:03 40.23370 116.83068 7798 ft 260 kts 234°
2026-04-19 03:03 40.22613 116.80975 7693 ft 260 kts 257°
2026-04-19 03:03 40.22380 116.78635 7571 ft 260 kts 263°
2026-04-19 03:04 40.22179 116.76293 7417 ft 260 kts 263°
2026-04-19 03:04 40.22274 116.73940 7217 ft 262 kts 286°
2026-04-19 03:04 40.23203 116.71908 7001 ft 268 kts 311°
2026-04-19 03:04 40.24803 116.70609 6708 ft 276 kts 339°
2026-04-19 03:05 40.26722 116.70204 6402 ft 280 kts 349°
2026-04-19 03:05 40.28634 116.69939 6087 ft 278 kts 349°
2026-04-19 03:05 40.30550 116.69657 5785 ft 274 kts 349°
2026-04-19 03:05 40.32403 116.69378 5662 ft 263 kts 350°
2026-04-19 03:06 40.34178 116.69106 5585 ft 250 kts 349°
2026-04-19 03:06 40.35818 116.68630 5465 ft 233 kts 327°
2026-04-19 03:06 40.36866 116.67176 5312 ft 215 kts 289°
2026-04-19 03:06 40.37027 116.65276 5023 ft 211 kts 262°
2026-04-19 03:07 40.36788 116.63407 4767 ft 209 kts 262°
2026-04-19 03:07 40.36578 116.61520 4507 ft 208 kts 264°
2026-04-19 03:07 40.36335 116.59672 4237 ft 208 kts 250°
2026-04-19 03:07 40.35460 116.58186 3917 ft 214 kts 216°
2026-04-19 03:08 40.34045 116.57531 3599 ft 221 kts 190°
2026-04-19 03:08 40.32478 116.57520 3273 ft 225 kts 178°
2026-04-19 03:08 40.30914 116.57761 2968 ft 227 kts 174°
2026-04-19 03:08 40.29371 116.58049 2925 ft 227 kts 174°
2026-04-19 03:09 40.27790 116.58331 2949 ft 226 kts 176°
2026-04-19 03:09 40.26256 116.58588 2959 ft 219 kts 177°
2026-04-19 03:09 40.24801 116.58820 3046 ft 196 kts 177°
2026-04-19 03:09 40.23497 116.59025 2954 ft 183 kts 178°
2026-04-19 03:10 40.22276 116.59211 2805 ft 172 kts 178°
2026-04-19 03:10 40.21094 116.59391 2558 ft 167 kts 178°
2026-04-19 03:10 40.19962 116.59563 2310 ft 163 kts 176°
2026-04-19 03:10 40.18851 116.59735 2074 ft 158 kts 176°
2026-04-19 03:11 40.17768 116.59905 1855 ft 155 kts 177°
2026-04-19 03:11 40.16706 116.60069 1649 ft 155 kts 176°
2026-04-19 03:11 40.15646 116.60236 1448 ft 150 kts 176°
2026-04-19 03:11 40.14652 116.60393 1222 ft 138 kts 176°
2026-04-19 03:12 40.13703 116.60541 1036 ft 136 kts 176°
2026-04-19 03:12 40.12759 116.60687 851 ft 136 kts 175°
2026-04-19 03:12 40.11823 116.60834 666 ft 136 kts 174°
2026-04-19 03:12 40.10886 116.60980 475 ft 135 kts 174°
2026-04-19 03:13 40.09941 116.61139 304 ft 134 kts 174°
2026-04-19 03:13 40.09033 116.61273 144 ft 127 kts 173°
2026-04-19 03:13 40.08261 116.61399 119 ft 92 kts 173°
2026-04-19 03:13 40.07786 116.61475 119 ft 52 kts 174°
2026-04-19 03:14 40.07444 116.61517 119 ft 47 kts 175°
2026-04-19 03:14 40.07169 116.61429 118 ft 30 kts 204°
2026-04-19 03:14 40.07006 116.61355 118 ft 18 kts 179°
2026-04-19 03:14 40.06955 116.61232 118 ft 17 kts 265°
2026-04-19 03:15 40.06939 116.61073 118 ft 17 kts 263°
2026-04-19 03:15 40.06865 116.60993 118 ft 16 kts 175°
2026-04-19 03:15 40.06766 116.61008 118 ft 10 kts 175°
2026-04-19 03:15 40.06736 116.60940 118 ft 10 kts 264°
2026-04-19 03:16 40.06730 116.60869 118 ft 0 kts 263°
2026-04-19 03:16 40.06730 116.60868 118 ft 0 kts 263°